Year,Month,Day,Hour,Minute,Value (Times are PST for temperature in C)
2010,10,19,08,54,7.50
2010,10,19,08,55,7.50
2010,10,19,08,56,7.50
2010,10,19,08,57,7.60
2010,10,19,08,58,7.60
2010,10,19,08,59,7.60
2010,10,19,09,00,7.60
2010,10,19,09,01,7.60
2010,10,19,09,02,7.60
2010,10,19,09,03,7.60
2010,10,19,09,04,7.70
2010,10,19,09,05,7.70
2010,10,19,09,06,7.70
2010,10,19,09,07,7.80
2010,10,19,09,08,7.80
2010,10,19,09,09,7.80
2010,10,19,09,10,7.80
2010,10,19,09,11,7.80
2010,10,19,09,12,7.90
2010,10,19,09,13,7.90
2010,10,19,09,14,8.00
2010,10,19,09,15,8.00
2010,10,19,09,16,8.10
2010,10,19,09,17,8.20
2010,10,19,09,18,8.20
2010,10,19,09,19,8.30
2010,10,19,09,20,8.40
2010,10,19,09,21,8.50
2010,10,19,09,22,8.50
2010,10,19,09,23,8.60
2010,10,19,09,24,8.60
2010,10,19,09,25,8.70
2010,10,19,09,26,8.70
2010,10,19,09,27,8.70
2010,10,19,09,28,8.70
2010,10,19,09,29,8.70
2010,10,19,09,30,8.70
2010,10,19,09,31,8.70
2010,10,19,09,32,8.70
2010,10,19,09,33,8.70
2010,10,19,09,34,8.70
2010,10,19,09,35,8.70
2010,10,19,09,36,8.70
2010,10,19,09,37,8.80
2010,10,19,09,38,8.80
2010,10,19,09,39,8.80
2010,10,19,09,40,8.90
2010,10,19,09,41,8.90
2010,10,19,09,42,9.00
2010,10,19,09,43,9.00
2010,10,19,09,44,9.00
2010,10,19,09,45,9.00
2010,10,19,09,46,9.10
2010,10,19,09,47,9.10
2010,10,19,09,48,9.10
2010,10,19,09,49,9.20
2010,10,19,09,50,9.20
2010,10,19,09,51,9.40
2010,10,19,09,52,9.50
2010,10,19,09,53,9.60
2010,10,19,09,54,9.70
2010,10,19,09,55,9.70
2010,10,19,09,56,9.80
2010,10,19,09,57,9.90
2010,10,19,09,58,9.90
2010,10,19,09,59,10.00
2010,10,19,10,00,10.10
2010,10,19,10,01,10.20
2010,10,19,10,02,10.30
2010,10,19,10,03,10.40
2010,10,19,10,04,10.50
2010,10,19,10,05,10.60
2010,10,19,10,06,10.70
2010,10,19,10,07,10.70
2010,10,19,10,08,10.80
2010,10,19,10,09,10.80
2010,10,19,10,10,10.90
2010,10,19,10,11,11.00
2010,10,19,10,12,11.10
2010,10,19,10,13,11.10
2010,10,19,10,14,11.20
2010,10,19,10,15,11.30
2010,10,19,10,16,11.40
2010,10,19,10,17,11.40
2010,10,19,10,18,11.60
2010,10,19,10,19,11.70
2010,10,19,10,20,11.80
2010,10,19,10,21,11.90
2010,10,19,10,22,12.00
2010,10,19,10,23,12.10
2010,10,19,10,24,12.20
2010,10,19,10,25,12.20
2010,10,19,10,26,12.30
2010,10,19,10,27,12.30
2010,10,19,10,28,12.30
2010,10,19,10,29,12.40
2010,10,19,10,30,12.50
2010,10,19,10,31,12.60
2010,10,19,10,32,12.60
2010,10,19,10,33,12.70
2010,10,19,10,34,12.80
2010,10,19,10,35,12.80
2010,10,19,10,36,12.90
2010,10,19,10,37,12.90
2010,10,19,10,38,12.90
2010,10,19,10,39,13.00
2010,10,19,10,40,13.00
2010,10,19,10,41,13.00
2010,10,19,10,42,13.00
2010,10,19,10,43,12.90
2010,10,19,10,44,12.80
2010,10,19,10,45,12.90
2010,10,19,10,46,12.90
2010,10,19,10,47,13.00
2010,10,19,10,48,13.10
2010,10,19,10,49,13.10
2010,10,19,10,50,13.10
2010,10,19,10,51,13.00
2010,10,19,10,52,13.00
2010,10,19,10,53,13.00
2010,10,19,10,54,12.90
2010,10,19,10,55,12.90
2010,10,19,10,56,12.90
2010,10,19,10,57,12.80
2010,10,19,10,58,12.80
2010,10,19,10,59,12.80
2010,10,19,11,00,12.80
2010,10,19,11,01,12.80
2010,10,19,11,02,12.80
2010,10,19,11,03,12.70
2010,10,19,11,04,12.70
2010,10,19,11,05,12.70
2010,10,19,11,06,12.70
2010,10,19,11,07,12.70
2010,10,19,11,08,12.70
2010,10,19,11,09,12.80
2010,10,19,11,10,12.90
2010,10,19,11,11,12.90
2010,10,19,11,12,13.10
2010,10,19,11,13,13.20
2010,10,19,11,14,13.30
2010,10,19,11,15,13.30
2010,10,19,11,16,13.30
2010,10,19,11,17,13.30
2010,10,19,11,18,13.30
2010,10,19,11,19,13.40
2010,10,19,11,20,13.40
2010,10,19,11,21,13.50
2010,10,19,11,22,13.60
2010,10,19,11,23,13.60
2010,10,19,11,24,13.70
2010,10,19,11,25,13.70
2010,10,19,11,26,13.70
2010,10,19,11,27,13.80
2010,10,19,11,28,13.90
2010,10,19,11,29,14.00
2010,10,19,11,30,14.10
2010,10,19,11,31,14.20
2010,10,19,11,32,14.20
2010,10,19,11,33,14.20
2010,10,19,11,34,14.20
2010,10,19,11,35,14.20
2010,10,19,11,36,14.20
2010,10,19,11,37,14.30
2010,10,19,11,38,14.30
2010,10,19,11,39,14.30
2010,10,19,11,40,14.40
2010,10,19,11,41,14.50
2010,10,19,11,42,14.60
2010,10,19,11,43,14.70
2010,10,19,11,44,14.80
2010,10,19,11,45,14.80
2010,10,19,11,46,14.80
2010,10,19,11,47,14.80
2010,10,19,11,48,14.80
2010,10,19,11,49,14.80
2010,10,19,11,50,14.80
2010,10,19,11,51,14.90
2010,10,19,11,52,14.90
2010,10,19,11,53,14.90
2010,10,19,11,54,15.00
2010,10,19,11,55,15.00
2010,10,19,11,56,14.90
2010,10,19,11,57,14.90
2010,10,19,11,58,14.90
2010,10,19,11,59,14.90
2010,10,19,12,00,15.00
2010,10,19,12,01,15.00
2010,10,19,12,02,15.10
2010,10,19,12,03,15.10
2010,10,19,12,04,15.30
2010,10,19,12,05,15.30
2010,10,19,12,06,15.40
2010,10,19,12,07,15.50
2010,10,19,12,08,15.60
2010,10,19,12,09,15.70
2010,10,19,12,10,15.70
2010,10,19,12,11,15.80
2010,10,19,12,12,15.80
2010,10,19,12,13,15.80
2010,10,19,12,14,15.70
2010,10,19,12,15,15.70
2010,10,19,12,16,15.70
2010,10,19,12,17,15.60
2010,10,19,12,18,15.50
2010,10,19,12,19,15.50
2010,10,19,12,20,15.30
2010,10,19,12,21,15.20
2010,10,19,12,22,14.90
2010,10,19,12,23,14.80
2010,10,19,12,24,14.60
2010,10,19,12,25,14.40
2010,10,19,12,26,14.20
2010,10,19,12,27,14.20
2010,10,19,12,28,14.20
2010,10,19,12,29,14.20
2010,10,19,12,30,14.30
2010,10,19,12,31,14.30
2010,10,19,12,32,14.40
2010,10,19,12,33,14.40
2010,10,19,12,34,14.40
2010,10,19,12,35,14.30
2010,10,19,12,36,14.20
2010,10,19,12,37,14.20
2010,10,19,12,38,14.20
2010,10,19,12,39,14.30
2010,10,19,12,40,14.40
2010,10,19,12,41,14.40
2010,10,19,12,42,14.50
2010,10,19,12,43,14.70
2010,10,19,12,44,14.80
2010,10,19,12,45,15.00
2010,10,19,12,46,15.00
2010,10,19,12,47,15.10
2010,10,19,12,48,15.20
2010,10,19,12,49,15.30
2010,10,19,12,50,15.40
2010,10,19,12,51,15.50
2010,10,19,12,52,15.50
2010,10,19,12,53,15.50
2010,10,19,12,54,15.60
2010,10,19,12,55,15.70
2010,10,19,12,56,15.80
2010,10,19,12,57,15.80
2010,10,19,12,58,15.80
2010,10,19,12,59,15.90
2010,10,19,13,00,16.00
2010,10,19,13,01,16.10
2010,10,19,13,02,16.10
2010,10,19,13,03,16.10
2010,10,19,13,04,16.10
2010,10,19,13,05,16.10
2010,10,19,13,06,16.10
2010,10,19,13,07,16.10
2010,10,19,13,08,16.10
2010,10,19,13,09,16.10
2010,10,19,13,10,16.10
2010,10,19,13,11,16.10
2010,10,19,13,12,16.20
2010,10,19,13,13,16.20
2010,10,19,13,14,16.10
2010,10,19,13,15,16.00
2010,10,19,13,16,15.80
2010,10,19,13,17,15.70
2010,10,19,13,18,15.70
2010,10,19,13,19,15.60
2010,10,19,13,20,15.60
2010,10,19,13,21,15.60
2010,10,19,13,22,15.60
2010,10,19,13,23,15.70
2010,10,19,13,24,15.70
2010,10,19,13,25,15.70
2010,10,19,13,26,15.70
2010,10,19,13,27,15.70
2010,10,19,13,28,15.70
2010,10,19,13,29,15.70
2010,10,19,13,30,15.80
2010,10,19,13,31,15.80
2010,10,19,13,32,15.80
2010,10,19,13,33,15.80
2010,10,19,13,34,15.80
2010,10,19,13,35,15.80
2010,10,19,13,36,15.90
2010,10,19,13,37,15.90
2010,10,19,13,38,15.90
2010,10,19,13,39,16.10
2010,10,19,13,40,16.10
2010,10,19,13,41,16.10
2010,10,19,13,42,16.20
2010,10,19,13,43,16.20
2010,10,19,13,44,16.30
2010,10,19,13,45,16.30
2010,10,19,13,46,16.30
2010,10,19,13,47,16.40
2010,10,19,13,48,16.40
2010,10,19,13,49,16.40
2010,10,19,13,50,16.60
2010,10,19,13,51,16.60
2010,10,19,13,52,16.70
2010,10,19,13,53,16.70
2010,10,19,13,54,16.80
2010,10,19,13,55,16.90
2010,10,19,13,56,16.90
2010,10,19,13,57,16.90
2010,10,19,13,58,16.90
2010,10,19,13,59,16.90
2010,10,19,14,00,16.90
2010,10,19,14,01,16.90
2010,10,19,14,02,16.90
2010,10,19,14,03,16.80
2010,10,19,14,04,16.80
2010,10,19,14,05,16.80
2010,10,19,14,06,16.80
2010,10,19,14,07,16.80
2010,10,19,14,08,16.80
2010,10,19,14,09,16.70
2010,10,19,14,10,16.70
2010,10,19,14,11,16.70
2010,10,19,14,12,16.70
2010,10,19,14,13,16.60
2010,10,19,14,14,16.60
2010,10,19,14,15,16.50
2010,10,19,14,16,16.40
2010,10,19,14,17,16.40
2010,10,19,14,18,16.50
2010,10,19,14,19,16.60
2010,10,19,14,20,16.70
2010,10,19,14,21,16.80
2010,10,19,14,22,16.90
2010,10,19,14,23,16.90
2010,10,19,14,24,17.00
2010,10,19,14,25,16.90
2010,10,19,14,26,16.80
2010,10,19,14,27,16.70
2010,10,19,14,28,16.60
2010,10,19,14,29,16.60
2010,10,19,14,30,16.60
2010,10,19,14,31,16.70
2010,10,19,14,32,16.70
2010,10,19,14,33,16.80
2010,10,19,14,34,16.80
2010,10,19,14,35,16.80
2010,10,19,14,36,16.90
2010,10,19,14,37,17.00
2010,10,19,14,38,17.00
2010,10,19,14,39,17.10
2010,10,19,14,40,17.10
2010,10,19,14,41,17.00
2010,10,19,14,42,17.00
2010,10,19,14,43,16.80
2010,10,19,14,44,16.70
2010,10,19,14,45,16.70
2010,10,19,14,46,16.60
2010,10,19,14,47,16.60
2010,10,19,14,48,16.60
2010,10,19,14,49,16.60
2010,10,19,14,50,16.60
2010,10,19,14,51,16.70
2010,10,19,14,52,16.80
2010,10,19,14,53,16.80
2010,10,19,14,54,16.80
2010,10,19,14,55,16.80
2010,10,19,14,56,16.90
2010,10,19,14,57,16.80
2010,10,19,14,58,16.80
2010,10,19,14,59,16.70
2010,10,19,15,00,16.70
2010,10,19,15,01,16.70
2010,10,19,15,02,16.70
2010,10,19,15,03,16.70
2010,10,19,15,04,16.70
2010,10,19,15,05,16.80
2010,10,19,15,06,16.80
2010,10,19,15,07,16.90
2010,10,19,15,08,17.00
2010,10,19,15,09,17.00
2010,10,19,15,10,17.10
2010,10,19,15,11,17.10
2010,10,19,15,12,17.20
2010,10,19,15,13,17.20
2010,10,19,15,14,17.30
2010,10,19,15,15,17.30
2010,10,19,15,16,17.30
2010,10,19,15,17,17.40
2010,10,19,15,18,17.50
2010,10,19,15,19,17.60
2010,10,19,15,20,17.70
2010,10,19,15,21,17.70
2010,10,19,15,22,17.80
2010,10,19,15,23,17.80
2010,10,19,15,24,17.90
2010,10,19,15,25,17.90
2010,10,19,15,26,17.90
2010,10,19,15,27,17.90
2010,10,19,15,28,17.90
2010,10,19,15,29,17.90
2010,10,19,15,30,17.80
2010,10,19,15,31,17.70
2010,10,19,15,32,17.60
2010,10,19,15,33,17.40
2010,10,19,15,34,17.30
2010,10,19,15,35,17.10
2010,10,19,15,36,17.00
2010,10,19,15,37,16.80
2010,10,19,15,38,16.70
2010,10,19,15,39,16.60
2010,10,19,15,40,16.50
2010,10,19,15,41,16.40
2010,10,19,15,42,16.30
2010,10,19,15,43,16.20
2010,10,19,15,44,16.20
2010,10,19,15,45,16.10
2010,10,19,15,46,16.10
2010,10,19,15,47,16.10
2010,10,19,15,48,16.10
2010,10,19,15,49,16.10
2010,10,19,15,50,16.10
2010,10,19,15,51,16.10
2010,10,19,15,52,16.10
2010,10,19,15,53,16.10
2010,10,19,15,54,16.20
2010,10,19,15,55,16.10
2010,10,19,15,56,16.10
2010,10,19,15,57,16.10
2010,10,19,15,58,16.00
2010,10,19,15,59,15.80
2010,10,19,16,00,15.80
2010,10,19,16,01,15.80
2010,10,19,16,02,15.80
2010,10,19,16,03,15.70
2010,10,19,16,04,15.60
2010,10,19,16,05,15.60
2010,10,19,16,06,15.50
2010,10,19,16,07,15.50
2010,10,19,16,08,15.50
2010,10,19,16,09,15.50
2010,10,19,16,10,15.50
2010,10,19,16,11,15.50
2010,10,19,16,12,15.50
2010,10,19,16,13,15.60
2010,10,19,16,14,15.60
2010,10,19,16,15,15.60
2010,10,19,16,16,15.60
2010,10,19,16,17,15.60
2010,10,19,16,18,15.60
2010,10,19,16,19,15.70
2010,10,19,16,20,15.70
2010,10,19,16,21,15.80
2010,10,19,16,22,15.80
2010,10,19,16,23,15.80
2010,10,19,16,24,15.80
2010,10,19,16,25,15.80
2010,10,19,16,26,15.80
2010,10,19,16,27,15.80
2010,10,19,16,28,15.80
2010,10,19,16,29,15.80
2010,10,19,16,30,15.80
2010,10,19,16,31,15.80
2010,10,19,16,32,15.80
2010,10,19,16,33,15.80
2010,10,19,16,34,15.80
2010,10,19,16,35,15.70
2010,10,19,16,36,15.70
2010,10,19,16,37,15.60
2010,10,19,16,38,15.50
2010,10,19,16,39,15.50
2010,10,19,16,40,15.40
2010,10,19,16,41,15.40
2010,10,19,16,42,15.30
2010,10,19,16,43,15.20
2010,10,19,16,44,15.10
2010,10,19,16,45,15.00
2010,10,19,16,46,14.90
2010,10,19,16,47,14.90
2010,10,19,16,48,14.80
2010,10,19,16,49,14.80
2010,10,19,16,50,14.70
2010,10,19,16,51,14.60
2010,10,19,16,52,14.50
2010,10,19,16,53,14.40
2010,10,19,16,54,14.30
2010,10,19,16,55,14.20
2010,10,19,16,56,14.20
2010,10,19,16,57,14.20
2010,10,19,16,58,14.10
2010,10,19,16,59,14.00
2010,10,19,17,00,14.00
2010,10,19,17,01,13.90
2010,10,19,17,02,13.80
2010,10,19,17,03,13.70
2010,10,19,17,04,13.70
2010,10,19,17,05,13.70
2010,10,19,17,06,13.70
2010,10,19,17,07,13.60
2010,10,19,17,08,13.60
2010,10,19,17,09,13.60
2010,10,19,17,10,13.50
2010,10,19,17,11,13.50
2010,10,19,17,12,13.50
2010,10,19,17,13,13.50
2010,10,19,17,14,13.50
2010,10,19,17,15,13.50
2010,10,19,17,16,13.50
2010,10,19,17,17,13.40
2010,10,19,17,18,13.40
2010,10,19,17,19,13.40
2010,10,19,17,20,13.30
2010,10,19,17,21,13.30
2010,10,19,17,22,13.30
2010,10,19,17,23,13.30
2010,10,19,17,24,13.30
2010,10,19,17,25,13.30
2010,10,19,17,26,13.30
2010,10,19,17,27,13.30
2010,10,19,17,28,13.30
2010,10,19,17,29,13.30
2010,10,19,17,30,13.30
2010,10,19,17,31,13.30
2010,10,19,17,32,13.30
2010,10,19,17,33,13.30
2010,10,19,17,34,13.20
2010,10,19,17,35,13.20
2010,10,19,17,36,13.20
2010,10,19,17,37,13.20
2010,10,19,17,38,13.10
2010,10,19,17,39,13.10
2010,10,19,17,40,13.10
2010,10,19,17,41,13.10
2010,10,19,17,42,13.10
2010,10,19,17,43,13.10
2010,10,19,17,44,13.00
2010,10,19,17,45,13.00
2010,10,19,17,46,13.00
2010,10,19,17,47,13.00
2010,10,19,17,48,13.00
2010,10,19,17,49,13.00
2010,10,19,17,50,13.00
2010,10,19,17,51,13.10
2010,10,19,17,52,13.10
2010,10,19,17,53,13.10
2010,10,19,17,54,13.10
2010,10,19,17,55,13.20
2010,10,19,17,56,13.20
2010,10,19,17,57,13.20
2010,10,19,17,58,13.30
2010,10,19,17,59,13.30
2010,10,19,18,00,13.30
2010,10,19,18,01,13.30
2010,10,19,18,02,13.30
2010,10,19,18,03,13.30
2010,10,19,18,04,13.30
2010,10,19,18,05,13.30
2010,10,19,18,06,13.30
2010,10,19,18,07,13.30
2010,10,19,18,08,13.30
2010,10,19,18,09,13.30
2010,10,19,18,10,13.30
2010,10,19,18,11,13.30
2010,10,19,18,12,13.30
2010,10,19,18,13,13.30
2010,10,19,18,14,13.30
2010,10,19,18,15,13.30
